TimeCDT,TemperatureF,Dew PointF,Humidity,Sea Level PressureIn,VisibilityMPH,Wind Direction,Wind SpeedMPH,Gust SpeedMPH,PrecipitationIn,Events,Conditions,WindDirDegrees,DateUTC
12:15 AM,51.8,35.6,54,29.73,10.0,West,11.5,-,N/A,,Clear,260,2011-10-16 05:15:00
12:35 AM,51.8,37.4,58,29.72,10.0,WSW,10.4,-,N/A,,Clear,250,2011-10-16 05:35:00
12:55 AM,51.8,37.4,58,29.72,10.0,West,10.4,-,N/A,,Partly Cloudy,260,2011-10-16 05:55:00
1:15 AM,51.8,37.4,58,29.72,10.0,West,10.4,-,N/A,,Mostly Cloudy,260,2011-10-16 06:15:00
1:55 AM,51.8,35.6,54,29.72,10.0,West,11.5,16.1,N/A,,Overcast,260,2011-10-16 06:55:00
2:15 AM,51.8,35.6,54,29.72,10.0,West,11.5,-,N/A,,Overcast,280,2011-10-16 07:15:00
2:35 AM,51.8,35.6,54,29.72,10.0,West,11.5,-,N/A,,Overcast,270,2011-10-16 07:35:00
2:55 AM,51.8,35.6,54,29.72,10.0,West,11.5,17.3,N/A,,Overcast,280,2011-10-16 07:55:00
3:15 AM,-9999,-9999,N/A,29.71,10.0,West,9.2,-,N/A,,Overcast,280,2011-10-16 08:15:00
3:55 AM,50.0,33.8,54,29.71,10.0,West,11.5,-,N/A,,Mostly Cloudy,270,2011-10-16 08:55:00
4:15 AM,51.8,35.6,54,29.72,10.0,West,13.8,-,N/A,,Overcast,280,2011-10-16 09:15:00
4:35 AM,51.8,33.8,50,29.72,10.0,West,11.5,-,N/A,,Overcast,270,2011-10-16 09:35:00
4:55 AM,50.0,33.8,54,29.72,10.0,WNW,13.8,21.9,N/A,,Mostly Cloudy,290,2011-10-16 09:55:00
5:15 AM,50.0,33.8,54,29.72,10.0,West,9.2,18.4,N/A,,Partly Cloudy,280,2011-10-16 10:15:00
5:35 AM,48.2,33.8,58,29.72,10.0,West,10.4,17.3,N/A,,Mostly Cloudy,270,2011-10-16 10:35:00
5:55 AM,48.2,33.8,58,29.72,10.0,West,12.7,16.1,N/A,,Partly Cloudy,270,2011-10-16 10:55:00
6:35 AM,46.4,33.8,62,29.71,10.0,West,6.9,-,N/A,,Clear,260,2011-10-16 11:35:00
6:55 AM,46.4,33.8,62,29.71,10.0,WSW,6.9,-,N/A,,Clear,250,2011-10-16 11:55:00
7:15 AM,46.4,33.8,62,29.71,10.0,West,8.1,-,N/A,,Clear,260,2011-10-16 12:15:00
7:35 AM,46.4,35.6,66,29.72,10.0,WSW,8.1,-,N/A,,Clear,250,2011-10-16 12:35:00
7:55 AM,48.2,35.6,62,29.71,10.0,WSW,9.2,-,N/A,,Clear,250,2011-10-16 12:55:00
8:15 AM,50.0,35.6,58,29.71,10.0,West,12.7,-,N/A,,Clear,260,2011-10-16 13:15:00
8:35 AM,50.0,35.6,58,29.71,10.0,West,11.5,-,N/A,,Clear,260,2011-10-16 13:35:00
8:55 AM,51.8,35.6,54,29.71,10.0,WSW,12.7,19.6,N/A,,Clear,250,2011-10-16 13:55:00
9:15 AM,51.8,37.4,58,29.71,10.0,West,15.0,19.6,N/A,,Clear,260,2011-10-16 14:15:00
9:35 AM,51.8,37.4,58,29.70,10.0,West,17.3,23.0,N/A,,Clear,260,2011-10-16 14:35:00
9:55 AM,51.8,37.4,58,29.69,10.0,West,13.8,20.7,N/A,,Clear,260,2011-10-16 14:55:00
10:15 AM,-9999,-9999,N/A,29.68,10.0,West,16.1,-,N/A,,Clear,260,2011-10-16 15:15:00
10:35 AM,53.6,37.4,54,29.68,10.0,WSW,15.0,-,N/A,,Clear,250,2011-10-16 15:35:00
10:55 AM,53.6,37.4,54,29.67,10.0,West,16.1,-,N/A,,Clear,260,2011-10-16 15:55:00
11:15 AM,53.6,35.6,51,29.66,10.0,WSW,20.7,26.5,N/A,,Clear,250,2011-10-16 16:15:00
11:35 AM,-9999,-9999,N/A,29.65,10.0,West,20.7,28.8,N/A,,Clear,260,2011-10-16 16:35:00
11:55 AM,55.4,33.8,44,29.65,10.0,WSW,20.7,25.3,N/A,,Mostly Cloudy,250,2011-10-16 16:55:00
12:35 PM,-9999,-9999,N/A,29.63,10.0,West,21.9,27.6,N/A,,Mostly Cloudy,260,2011-10-16 17:35:00
12:55 PM,-9999,-9999,N/A,29.62,10.0,West,21.9,31.1,N/A,,Mostly Cloudy,270,2011-10-16 17:55:00
1:15 PM,-9999,-9999,N/A,29.60,10.0,West,21.9,33.4,N/A,,Mostly Cloudy,280,2011-10-16 18:15:00
1:35 PM,-9999,-9999,N/A,29.59,10.0,West,19.6,26.5,N/A,,Mostly Cloudy,270,2011-10-16 18:35:00
1:55 PM,-9999,-9999,N/A,29.59,10.0,West,23.0,31.1,N/A,,Mostly Cloudy,270,2011-10-16 18:55:00
2:15 PM,-9999,-9999,N/A,29.58,10.0,West,18.4,29.9,N/A,,Scattered Clouds,280,2011-10-16 19:15:00
2:35 PM,-9999,-9999,N/A,29.58,10.0,West,19.6,28.8,N/A,,Partly Cloudy,270,2011-10-16 19:35:00
2:55 PM,-9999,-9999,N/A,29.58,10.0,West,19.6,27.6,N/A,,Mostly Cloudy,270,2011-10-16 19:55:00
3:15 PM,-9999,-9999,N/A,29.59,10.0,West,17.3,27.6,N/A,,Partly Cloudy,270,2011-10-16 20:15:00
3:35 PM,-9999,-9999,N/A,29.58,10.0,West,25.3,29.9,N/A,,Scattered Clouds,280,2011-10-16 20:35:00
3:55 PM,-9999,-9999,N/A,29.58,10.0,West,18.4,27.6,N/A,,Scattered Clouds,280,2011-10-16 20:55:00
4:15 PM,-9999,-9999,N/A,29.58,10.0,West,17.3,28.8,N/A,,Scattered Clouds,280,2011-10-16 21:15:00
4:35 PM,-9999,-9999,N/A,29.58,10.0,West,15.0,32.2,N/A,,Mostly Cloudy,270,2011-10-16 21:35:00
4:55 PM,-9999,-9999,N/A,29.58,10.0,West,18.4,26.5,N/A,,Mostly Cloudy,280,2011-10-16 21:55:00
5:15 PM,-9999,-9999,N/A,29.58,10.0,West,17.3,27.6,N/A,,Partly Cloudy,270,2011-10-16 22:15:00
5:35 PM,-9999,-9999,N/A,29.58,10.0,West,17.3,28.8,N/A,,Partly Cloudy,270,2011-10-16 22:35:00
5:55 PM,53.6,24.8,33,29.59,10.0,West,19.6,26.5,N/A,,Partly Cloudy,270,2011-10-16 22:55:00
6:15 PM,53.6,24.8,33,29.59,10.0,West,16.1,28.8,N/A,,Clear,260,2011-10-16 23:15:00
6:35 PM,53.6,26.6,35,29.59,10.0,West,12.7,25.3,N/A,,Clear,260,2011-10-16 23:35:00
6:55 PM,53.6,26.6,35,29.60,10.0,West,16.1,24.2,N/A,,Mostly Cloudy,260,2011-10-16 23:55:00
7:35 PM,-9999,-9999,N/A,29.59,10.0,WSW,15.0,21.9,N/A,,Mostly Cloudy,250,2011-10-17 00:35:00
7:55 PM,51.8,28.4,41,29.60,10.0,WSW,15.0,21.9,N/A,,Scattered Clouds,250,2011-10-17 00:55:00
8:15 PM,51.8,28.4,41,29.59,10.0,West,13.8,20.7,N/A,,Scattered Clouds,260,2011-10-17 01:15:00
8:35 PM,51.8,28.4,41,29.60,10.0,West,15.0,23.0,N/A,,Mostly Cloudy,260,2011-10-17 01:35:00
8:55 PM,51.8,28.4,41,29.61,10.0,West,17.3,24.2,N/A,,Mostly Cloudy,270,2011-10-17 01:55:00
9:15 PM,51.8,26.6,38,29.61,10.0,West,15.0,25.3,N/A,,Partly Cloudy,270,2011-10-17 02:15:00
9:35 PM,-9999,-9999,N/A,29.61,10.0,West,18.4,27.6,N/A,,Partly Cloudy,280,2011-10-17 02:35:00
9:55 PM,51.8,26.6,38,29.61,10.0,West,19.6,28.8,N/A,,Mostly Cloudy,280,2011-10-17 02:55:00
10:15 PM,-9999,-9999,N/A,29.60,10.0,West,21.9,34.5,N/A,,Scattered Clouds,280,2011-10-17 03:15:00
10:35 PM,-9999,-9999,N/A,29.62,10.0,West,17.3,29.9,N/A,,Scattered Clouds,280,2011-10-17 03:35:00
10:55 PM,-9999,-9999,N/A,29.62,10.0,WNW,18.4,25.3,N/A,,Mostly Cloudy,290,2011-10-17 03:55:00
11:15 PM,-9999,-9999,N/A,29.63,10.0,WNW,13.8,25.3,N/A,,Mostly Cloudy,290,2011-10-17 04:15:00
11:35 PM,-9999,-9999,N/A,29.62,10.0,West,17.3,25.3,N/A,,Overcast,260,2011-10-17 04:35:00
11:55 PM,-9999,-9999,N/A,29.61,10.0,West,17.3,26.5,N/A,,Overcast,270,2011-10-17 04:55:00